Probability
0 0 0 0 0 0 0 0 0 0 0 0 0 0 0 0 3 0 0 0 0 0 0 0 0 0 0 0 0 0 0 0 0 0 0 0 0 0 0 0 0 0 0 0
0 0 0 0 0 0 0 0 0 0 0 0 0 0 0 0 0 0 0 0 0 0 0 0 0 0 0 0 0 0 0 0 0 0 0 0 0 0 0 0 0 0 0 0
0 0 0 0 0 0 0 0 0 0 0 0 0 0 0 0 0 0 0 0 0 0 0 0 0 0 0 0 0 0 0 0 0 0 0 0 0 0 0 0 0 0 0 0
0 0 0 0 0 0 0 0 0 0 0 0 0 0 0 0 0 0 0 0 0 0 0 0 0 0 0 0 0 0 0 0 0 0 0 0 0 0 0 0 0 0 0 0
0 0 0 0 0 0 0 0 0 0 0 0 0 0 0 0 0 0 0 0 0 0 0 0 0 0 0 0 0 0 0 0 0 0 0 0 0 0 0 0 0 0 0 0
0 0 0 0 0 0 0 0 0 0 0 0 0 0 0 0 0 0 0 0 0 0 0 0 0 0 0 0 0 0 0 0 0 0 0 0 0 0 0 0 0 0 0 0
0 0 0 0 0 0 0 0 0 0 0 0 0 0 0 0 0 0 0 0 0 0 0 0 0 0 0 0 0 0 0 0 0 0 0 0 0 0 0 0 0 0 0 0
0 0 0 0 0 0 0 0 0 0 0 0 0 0 0 0 0 0 0 0 0 0 0 0 0 0 0 0 0 0 0 0 0 0 0 0 0 0 0 0 0 0 0 0
0 0 0 0 0 0 0 0 0 0 0 0 0 0 0 0 0 0 0 0 0 0 0 0 0 0 0 0 0 0 0 0 0 0 0 0 0 0 0 0 0 0 0 0
0 0 0 0 0 0 0 0 0 0 0 0 0 0 0 0 0 0 0 0 0 0 0 0 0 0 0 0 0 0 0 0 0 0 0 0 0 0 0 0 0 0 0 0
0 0 0 0 0 0 0 0 0 0 0 0 0 0 0 0 0 0 0 0 0 0 0 0 0 0 0 0 0 0 0 0 0 0 0 0 0 0 0 0 0 0 0 0
0 0 0 0 0 0 0 0 0 0 0 0 0 0 0 0 0 0 0 0 0 0 0 0 0 0 0 0 0 0 0 0 0 0 0 0 0 0 0 0 0 0 0 0
0 0 0 0 0 0 0 0 0 0 0 0 0 0 0 0 0 0 0 0 0 0 0 0 0 0 0 0 0 0 0 0 0 0 0 0 0 0 0 0 0 0 0 0
0 0 0 0 0 0 0 0 0 0 0 0 0 0 0 0 0 0 0 0 0 0 0 0 0 0 0 0 0 0 0 0 0 0 0 0 0 0 0 0 0 0 0 0
0 0 0 0 0 0 0 0 0 0 0 0 0 0 0 0 0 0 0 0 0 0 0 0 0 0 0 0 0 0 0 0 0 0 0 0 0 0 0 0 0 0 0 0
0 0 0 0 0 0 0 0 0 0 0 0 0 0 0 0 0 0 0 0 0 0 0 0 0 0 0 0 0 0 0 0 0 0 0 0 0 0 0 0 0 0 0 0
0 0 0 0 0 0 0 0 0 0 0 0 0 0 0 0 0 0 0 0 0 0 0 0 0 0 0 0 0 0 0 0 0 0 0 0 0 0 0 0 0 0 0 0
0 0 0 0 0 0 0 0 0 0 0 0 0 0 0 0 0 0 0 0 0 0 0 0 0 0 0 0 0 0 0 0 0 0 0 0 0 0 0 0 0 0 0 0
0 0 0 0 0 0 0 0 0 0 0 0 0 0 0 0 0 0 0 0 0 0 0 0 0 0 0 0 0 0 0 0 0 0 0 0 0 0 0 0 0 0 0 0
0 0 0 0 0 0 0 0 0 0 0 0 0 0 0 0 0 0 0 0 0 0 0 0 0 0 0 0 0 0 0 0 0 0 0 0 0 0 0 0 0 0 0 0
0 0 0 0 0 0 0 0 0 0 0 0 0 0 0 0 0 0 0 0 0 0 0 0 0 0 0 0 0 0 0 0 0 0 0 0 0 0 0 0 0 0 0 0
0 0 0 0 0 0 0 0 0 0 0 0 0 0 0 0 0 0 0 0 0 0 0 0 0 0 0 0 0 0 0 0 0 0 0 0 0 0 0 0 0 0 0 0
0 0 0 0 0 0 0 0 0 0 0 0 0 0 0 0 0 0 0 0 0 0 0 0 0 0 0 0 0 0 0 0 0 0 0 0 0 0 0 0 0 0 0 0
0 0 0 0 0 0 0 0 0 0 0 0 0 0 0 0 0 0 0 0 0 0 0 0 0 0 0 0 0 0 0 0 0 0 0 0 0 0 0 0 0 0 0 0
0 0 0 0 0 0 0 0 0 0 0 0 0 0 0 0 0 0 0 0 0 0 0 0 0 0 0 0 0 0 0 0 0 0 0 0 0 0 0 0 0 0 0 0
0 0 0 0 0 0 0 0 0 0 0 0 0 0 0 0 0 0 0 0 0 0 0 0 0 0 0 0 0 0 0 0 0 0 0 0 0 0 0 0 0 0 0 0
Height
5873 5874 5874 5874 5874 5874 5874 5874 5873 5873 5872 5871 5871 5870 5869 5868 5867 5866 5865 5864 5863 5862 5862 5861 5860 5860 5859 5859 5858 5858 5857 5857 5857 5857 5856 5856 5855 5855 5854 5853 5853 5853 5852 5852
5871 5872 5872 5872 5872 5872 5872 5872 5872 5871 5870 5870 5870 5869 5868 5867 5866 5865 5864 5863 5862 5861 5861 5860 5860 5859 5859 5858 5857 5857 5857 5856 5856 5856 5856 5855 5855 5854 5853 5853 5852 5852 5851 5851
5868 5870 5870 5870 5870 5871 5871 5871 5870 5870 5869 5869 5869 5869 5867 5866 5865 5864 5864 5863 5861 5860 5860 5859 5859 5859 5858 5857 5857 5856 5856 5856 5855 5855 5855 5854 5854 5853 5853 5852 5851 5851 5850 5850
5865 5867 5867 5868 5868 5869 5869 5869 5868 5868 5868 5868 5868 5868 5867 5865 5864 5864 5863 5862 5861 5860 5859 5858 5858 5858 5857 5857 5856 5856 5855 5855 5854 5854 5853 5853 5853 5852 5852 5851 5851 5850 5850 5849
5862 5864 5864 5865 5866 5866 5867 5866 5866 5866 5866 5866 5866 5866 5867 5865 5863 5863 5862 5861 5860 5859 5858 5857 5857 5857 5856 5856 5855 5855 5854 5854 5854 5853 5852 5852 5852 5851 5851 5850 5850 5849 5849 5849
5859 5860 5861 5862 5863 5863 5864 5864 5864 5864 5864 5865 5865 5864 5865 5864 5862 5861 5860 5859 5858 5858 5857 5856 5856 5855 5855 5855 5854 5854 5853 5853 5852 5852 5851 5851 5850 5850 5850 5849 5849 5849 5849 5849
5855 5856 5858 5859 5860 5860 5861 5862 5862 5862 5862 5863 5863 5862 5863 5862 5861 5860 5859 5858 5857 5856 5855 5855 5854 5854 5853 5853 5853 5853 5852 5852 5851 5851 5850 5850 5849 5849 5849 5848 5848 5848 5848 5848
5851 5853 5854 5855 5856 5857 5858 5859 5860 5860 5860 5860 5860 5860 5861 5860 5859 5858 5857 5857 5856 5855 5854 5853 5853 5852 5852 5851 5851 5851 5851 5850 5850 5849 5849 5848 5848 5848 5847 5847 5847 5847 5848 5848
5847 5849 5851 5852 5853 5854 5854 5855 5856 5857 5857 5857 5857 5859 5858 5858 5857 5856 5856 5855 5854 5853 5853 5852 5851 5850 5850 5849 5849 5849 5849 5848 5848 5848 5847 5847 5846 5846 5846 5846 5846 5846 5847 5847
5842 5845 5846 5847 5849 5850 5851 5852 5852 5853 5853 5854 5855 5856 5856 5855 5855 5854 5854 5853 5852 5852 5851 5850 5849 5849 5848 5847 5847 5847 5846 5846 5846 5846 5846 5845 5845 5845 5845 5845 5845 5845 5845 5846
5837 5839 5841 5843 5844 5846 5847 5848 5848 5849 5850 5851 5852 5855 5853 5853 5852 5852 5851 5851 5850 5849 5849 5848 5847 5846 5846 5845 5845 5844 5844 5844 5844 5844 5844 5843 5843 5843 5843 5843 5843 5844 5844 5844
5831 5833 5835 5837 5839 5840 5841 5843 5844 5845 5846 5847 5848 5852 5849 5849 5849 5849 5848 5848 5847 5846 5846 5845 5845 5844 5843 5843 5842 5842 5842 5842 5842 5842 5841 5841 5841 5841 5841 5841 5842 5842 5843 5843
5825 5827 5829 5831 5835 5835 5836 5837 5838 5840 5841 5842 5843 5847 5845 5845 5845 5845 5844 5844 5843 5843 5842 5842 5841 5841 5840 5840 5839 5839 5839 5839 5839 5839 5839 5839 5839 5839 5839 5839 5840 5840 5841 5841
5818 5820 5823 5826 5827 5829 5830 5832 5833 5834 5835 5837 5839 5841 5841 5840 5840 5841 5840 5839 5839 5839 5839 5838 5838 5837 5837 5836 5836 5836 5836 5836 5836 5836 5836 5836 5836 5836 5836 5837 5837 5838 5839 5839
5811 5813 5815 5818 5820 5822 5824 5825 5827 5828 5829 5831 5834 5834 5836 5835 5835 5836 5836 5835 5835 5835 5835 5834 5834 5833 5833 5833 5832 5832 5832 5832 5832 5832 5832 5833 5833 5833 5834 5834 5835 5836 5836 5837
5803 5806 5808 5811 5813 5814 5816 5819 5820 5821 5823 5824 5826 5828 5830 5830 5830 5830 5830 5830 5830 5830 5830 5830 5829 5829 5829 5828 5828 5828 5828 5828 5828 5829 5829 5829 5830 5830 5830 5831 5832 5833 5834 5834
5796 5798 5801 5803 5805 5806 5809 5813 5813 5815 5816 5818 5819 5823 5823 5823 5823 5824 5824 5824 5824 5825 5825 5825 5825 5824 5824 5824 5824 5824 5824 5824 5825 5825 5825 5826 5826 5826 5827 5828 5829 5830 5830 5831
5789 5791 5792 5795 5797 5799 5806 5806 5806 5807 5809 5810 5811 5814 5815 5816 5816 5817 5817 5818 5818 5819 5819 5819 5819 5819 5819 5819 5819 5819 5819 5820 5820 5821 5821 5821 5822 5823 5823 5824 5825 5826 5827 5827
5781 5783 5785 5786 5788 5791 5796 5798 5798 5799 5801 5802 5803 5805 5807 5807 5808 5810 5810 5811 5812 5812 5813 5812 5813 5813 5814 5814 5814 5814 5814 5815 5815 5816 5816 5817 5817 5818 5819 5820 5820 5822 5823 5823
5773 5775 5777 5779 5780 5782 5789 5790 5790 5791 5792 5795 5795 5796 5798 5799 5801 5804 5804 5804 5805 5806 5806 5806 5806 5807 5807 5808 5808 5809 5809 5810 5810 5811 5811 5811 5812 5813 5814 5814 5815 5817 5818 5819
5765 5766 5769 5770 5771 5774 5780 5781 5782 5784 5786 5787 5787 5788 5789 5791 5793 5795 5796 5796 5798 5799 5799 5800 5800 5801 5801 5802 5802 5803 5804 5804 5804 5805 5805 5806 5807 5807 5808 5809 5810 5811 5812 5813
5756 5758 5761 5762 5764 5770 5771 5772 5773 5775 5777 5778 5778 5779 5781 5782 5784 5786 5787 5789 5790 5791 5792 5793 5794 5794 5795 5795 5796 5797 5798 5798 5799 5799 5800 5800 5801 5802 5802 5803 5805 5806 5807 5808
5748 5751 5753 5755 5759 5761 5761 5763 5764 5766 5768 5769 5770 5772 5773 5774 5775 5777 5779 5781 5782 5784 5785 5786 5787 5788 5788 5789 5790 5791 5791 5792 5792 5793 5794 5794 5795 5796 5796 5797 5798 5799 5801 5802
5739 5741 5743 5746 5749 5751 5752 5753 5755 5757 5759 5760 5762 5764 5765 5766 5767 5769 5771 5773 5774 5776 5777 5778 5780 5781 5781 5782 5783 5784 5784 5785 5786 5786 5787 5788 5789 5789 5790 5791 5792 5793 5795 5796
5731 5732 5734 5736 5740 5741 5743 5745 5746 5748 5750 5751 5753 5755 5757 5758 5760 5762 5763 5765 5767 5768 5770 5771 5772 5773 5774 5775 5775 5776 5777 5778 5779 5780 5780 5781 5782 5783 5784 5785 5786 5787 5788 5789
5722 5724 5725 5728 5731 5731 5734 5736 5737 5739 5741 5742 5744 5746 5748 5750 5752 5754 5756 5758 5759 5760 5762 5763 5765 5766 5767 5767 5768 5769 5770 5771 5772 5773 5774 5774 5776 5776 5777 5779 5780 5781 5782 5783
Wind_Speed
10 9 8 8 8 8 8 8 8 8 9 8 8 8 8 7 7 7 7 7 7 6 6 6 5 4 5 4 4 4 3 2 3 3 3 3 4 3 3 3 3 3 3 3
12 11 10 9 9 9 8 8 9 8 8 8 8 8 8 8 7 7 7 7 6 5 5 5 5 5 5 4 4 4 3 3 3 4 4 3 4 4 4 4 4 4 3 3
13 12 12 11 10 9 9 9 9 8 8 8 8 7 8 8 8 8 8 7 6 6 5 5 5 5 5 5 4 4 3 3 3 4 4 4 4 4 4 4 4 4 3 3
15 14 13 12 11 10 10 10 9 9 9 8 8 7 8 8 8 8 8 7 7 6 6 6 5 5 5 5 4 4 3 3 4 4 4 4 4 4 4 4 4 3 3 2
15 15 14 13 12 12 11 11 10 10 10 9 8 8 7 8 8 8 8 7 7 6 6 6 6 6 6 5 5 4 4 4 4 4 4 4 4 4 4 4 3 2 2 2
17 16 15 14 14 13 13 12 12 11 11 9 9 9 7 8 8 8 8 7 7 7 6 6 7 7 6 6 5 5 5 5 4 5 5 5 5 4 4 3 3 2 2 2
17 17 16 15 15 15 14 14 13 12 11 10 10 9 8 8 8 8 8 7 8 7 7 7 7 8 8 7 6 6 6 6 6 6 6 6 5 5 4 4 3 3 3 3
19 18 17 17 16 15 15 14 14 13 13 12 11 10 9 9 8 8 8 8 8 8 8 7 7 8 8 8 8 8 7 7 7 7 7 6 5 5 5 4 4 4 4 4
20 19 18 18 17 17 16 16 15 15 14 13 12 11 10 10 9 9 9 9 9 9 8 8 8 8 8 9 9 9 9 8 7 7 7 6 6 5 5 5 5 5 5 5
21 21 20 19 19 18 17 17 17 16 15 14 13 11 11 11 11 10 10 10 10 9 9 9 9 10 10 10 10 10 10 9 8 8 8 7 7 6 6 6 6 5 5 6
23 22 21 21 20 19 19 18 18 18 17 16 15 13 12 12 11 11 10 11 11 10 10 10 11 11 11 11 11 11 11 11 10 9 9 8 8 8 8 8 8 7 6 6
24 23 23 23 22 21 21 20 19 19 19 18 17 16 15 14 13 12 12 12 12 12 12 12 12 12 12 11 11 12 12 12 11 11 10 10 9 9 9 9 9 9 8 7
25 25 25 24 24 23 22 21 21 21 21 20 18 17 16 15 15 14 14 13 13 14 14 13 13 13 12 12 12 12 13 12 12 12 12 11 11 10 10 11 11 10 9 9
26 27 27 26 25 24 23 23 22 22 23 21 19 18 17 17 16 16 16 16 15 14 15 14 14 13 13 13 13 13 13 13 13 13 12 12 12 11 11 11 12 11 10 10
28 28 27 27 26 25 25 24 24 24 24 24 21 20 19 19 19 18 18 17 17 16 16 16 15 15 14 14 14 14 14 14 14 13 13 13 13 12 12 12 12 12 12 11
30 29 29 28 28 27 26 25 26 26 26 25 24 22 20 21 21 21 20 19 19 18 17 17 17 17 16 15 15 15 16 15 14 14 13 13 14 14 14 14 13 14 13 13
30 30 30 30 29 30 29 26 26 27 27 27 25 23 23 23 22 22 21 21 20 20 19 19 18 17 17 17 16 16 16 16 15 15 15 15 14 14 15 15 15 15 14 14
30 30 31 31 31 31 28 27 28 28 27 27 26 25 25 24 23 23 23 22 22 22 21 20 19 18 18 18 17 17 17 17 16 16 16 16 16 16 15 16 16 16 16 16
31 31 31 31 32 31 29 28 28 29 28 27 27 26 26 25 25 24 23 22 23 23 22 21 21 20 19 19 18 18 18 18 18 18 18 18 17 17 17 17 18 17 17 16
32 32 32 32 32 32 29 28 28 29 28 27 27 27 27 26 26 24 23 23 23 23 23 22 21 21 21 21 20 19 19 19 19 19 19 19 19 18 19 19 19 19 19 18
32 32 33 32 32 31 28 28 28 28 27 27 28 28 28 28 27 25 24 24 24 24 23 23 22 21 21 21 21 20 20 20 20 20 19 20 19 19 19 19 19 20 19 19
33 33 32 32 33 30 28 29 28 28 27 27 27 28 28 28 28 27 26 25 25 24 24 24 23 22 22 22 21 21 21 21 21 21 20 20 20 21 20 20 19 19 20 20
33 33 33 33 32 30 30 29 29 29 28 28 28 28 28 28 28 27 26 26 25 25 24 24 23 23 22 22 21 21 22 22 22 21 21 21 21 22 22 21 21 20 20 20
32 32 33 33 32 31 30 30 30 30 30 30 29 29 27 28 27 26 25 25 25 24 24 24 24 23 23 22 22 22 23 23 22 22 22 23 23 23 23 22 22 21 21 22
31 32 33 33 32 32 32 30 30 31 31 30 29 28 28 27 27 26 25 25 25 25 25 25 25 25 24 24 23 23 23 23 23 23 23 23 22 22 22 21 21 21 21 22
32 34 34 33 32 33 32 31 31 32 31 30 29 29 28 28 27 27 26 26 26 25 25 25 25 25 25 25 24 24 23 23 23 23 23 23 22 22 22 22 21 21 21 21
Wind_Direction
255 257 263 271 282 292 300 305 307 308 307 309 312 314 313 315 315 313 318 318 313 309 312 312 314 322 323 316 308 309 295 292 299 306 306 297 300 304 313 310 306 302 292 287
252 256 261 270 281 289 297 302 304 303 302 304 309 314 315 315 312 308 311 320 320 312 308 311 311 315 316 318 314 308 297 290 290 295 302 299 298 301 306 306 301 294 291 282
252 255 259 265 274 285 291 296 297 298 299 301 306 311 312 314 313 309 308 315 320 319 311 301 301 309 308 311 312 305 296 293 300 301 301 295 291 293 296 297 296 290 286 274
251 254 258 263 269 277 284 288 289 292 296 299 302 308 311 310 311 311 311 310 312 312 308 302 296 299 302 305 306 301 295 304 307 304 299 292 292 293 294 293 298 285 274 255
251 254 258 261 266 271 277 280 286 291 295 297 300 304 311 310 310 313 310 310 310 307 300 298 293 292 292 296 299 296 297 302 304 303 299 296 294 295 296 295 294 279 247 235
250 252 255 259 262 266 269 273 279 287 290 292 298 301 310 313 310 309 308 308 306 303 296 292 289 289 290 290 287 289 294 298 299 301 302 298 293 287 287 286 281 269 248 234
250 252 254 257 259 263 266 270 274 279 286 292 294 294 303 308 309 310 309 307 304 301 298 292 290 288 290 289 283 283 289 292 293 296 299 299 288 279 274 272 271 258 242 232
251 252 255 257 259 264 266 268 272 276 285 290 288 292 298 302 306 309 307 306 305 303 303 301 294 291 287 284 281 279 282 286 289 292 294 292 279 273 265 263 261 253 243 235
251 253 255 257 259 260 263 263 268 273 278 283 284 286 292 296 298 298 298 300 303 302 302 299 296 294 290 283 279 275 276 278 281 285 284 282 278 271 263 259 258 254 248 238
251 252 253 255 255 256 260 262 265 270 275 280 283 283 285 290 292 292 292 294 294 296 298 295 293 290 288 284 277 273 273 274 276 280 278 275 275 272 266 258 252 251 248 245
250 251 251 252 253 257 258 260 263 267 271 277 282 281 284 288 289 287 288 290 290 290 292 292 288 287 285 282 278 271 270 271 272 276 276 271 269 271 265 257 250 246 250 248
249 251 251 250 252 254 256 259 261 265 269 274 279 281 282 284 286 286 286 286 287 286 287 288 288 285 283 281 278 273 268 269 271 275 276 271 266 268 263 257 251 248 246 247
249 250 251 249 249 251 254 256 258 262 266 268 272 278 278 279 280 283 284 283 284 284 284 284 284 284 282 280 276 274 271 268 269 270 272 270 267 266 262 257 252 249 245 246
250 251 251 251 252 253 254 255 257 261 264 267 271 274 273 274 275 277 278 279 280 282 283 282 282 282 280 278 275 274 272 270 267 266 267 268 265 263 260 257 254 250 247 245
251 252 251 251 252 253 253 254 255 259 263 266 268 269 269 269 271 273 273 275 277 278 280 280 279 279 277 276 275 273 272 271 267 263 262 263 264 261 258 255 251 249 250 250
252 252 252 252 252 253 253 253 255 258 261 263 265 266 267 267 268 270 271 271 273 275 275 276 277 276 274 273 273 271 269 268 266 261 260 260 260 258 257 255 251 250 252 254
252 253 253 253 254 254 254 254 257 258 260 262 263 265 265 266 266 269 269 269 270 272 273 273 274 274 272 271 272 269 267 266 265 261 259 259 259 257 254 253 251 250 252 254
252 254 255 255 255 256 258 257 258 260 260 261 261 261 263 265 266 267 267 267 267 269 269 268 269 269 269 269 269 267 265 264 263 261 259 260 258 255 254 253 250 250 253 254
252 254 255 256 257 258 258 260 261 263 262 261 260 261 262 263 263 263 265 266 265 266 265 264 264 266 266 266 267 267 264 262 261 261 260 258 257 256 255 255 252 251 253 254
252 253 255 256 258 260 260 261 263 264 262 260 260 261 262 262 263 263 263 264 265 264 264 263 263 264 265 265 266 267 265 262 261 261 260 256 256 257 257 255 252 251 252 253
251 252 254 256 258 260 261 263 263 262 263 261 260 260 260 261 263 263 260 261 264 262 262 263 263 265 265 266 265 266 266 262 260 260 258 256 256 257 257 256 254 252 252 252
251 252 253 255 256 259 261 261 261 261 261 261 261 261 261 260 260 260 259 260 262 261 262 262 263 265 264 264 265 266 265 263 261 260 258 256 255 256 257 256 255 253 253 253
251 252 253 254 256 259 259 260 260 261 261 260 261 261 262 260 258 259 259 258 259 259 260 261 262 263 261 261 263 264 265 264 263 261 259 258 257 257 258 258 256 253 252 253
251 251 252 253 254 256 257 258 260 261 262 261 260 259 259 260 260 258 257 257 257 257 260 261 261 262 262 261 261 263 264 264 263 260 259 259 259 258 259 258 256 253 252 253
251 251 253 255 255 255 256 257 259 260 260 260 258 257 257 259 259 257 256 256 258 257 259 259 258 260 260 260 260 262 263 264 263 262 261 260 259 257 257 256 255 254 253 252
251 253 255 255 255 256 255 255 257 258 258 258 256 254 254 256 257 256 255 255 257 258 258 258 257 258 259 258 258 259 261 263 263 263 261 259 258 257 254 254 255 256 255 255